SCP
-0 -0 -0 -0 -0 -0 -0 0 0 0 0 0 0 0 0 0 0 0 0 0 0 0
0 0 0 0 0 0 0 0 0 0 0 0 0 0 0 0 0 0 0 0 0 0
0 0 0 0 0 0 0 0 0 0 0 0 0 0 0 0 0 0 0 0 0 0
0 0 0 0 0 0 0 0 0 0 0 0 0 0 0 0 0 0 0 0 0 0
0 0 0 0 0 0 0 0 0 0 0 0 0 0 0 0 0 0 0 0 0 0
0 0 0 0 0 0 0 0 0 0 0 0 0 0 0 0 0 0 0 0 0 0
0 0 0 0 0 0 0 0 0 0 0 0 0 0 0 0 -0 -0 -0 -0 0 0
0 0 0 0 0 0 0 0 0 0 0 0 0 0 -0 -0 -0 -0 0 0 0 0
0 0 0 0 0 0 0 0 -0 -0 -0 -0 -0 -0 -0 -0 -0 0 -0 -0 -0 0
0 0 0 0 0 0 0 0 -0 -0 -0 -0 0 -0 0 -0 -0 -0 -0 0 -0 -0
0 0 0 0 -0 0 0 -0 0 0 0 0 0 -0 -0 -0 -0 0 -0 0 -0 -0
0 0 0 0 0 0 0 0 0 0 0 0 0 -0 -0 -0 -0 -0 0 0 0 0
0 0 0 0 0 0 0 0 0 0 0 0 0 -0 0 -0 -0 0 0 0 0 0
0 0 0 0 0 0 0 0 0 0 0 0 0 0 0 0 -0 -0 0 0 0 0
Wind_Speed_500mb
41 45 44 40 37 39 37 34 28 28 26 23 18 17 14 13 14 13 9 11 12 12
44 42 42 39 36 35 34 32 27 24 24 25 25 25 22 24 24 19 19 19 18 16
41 40 39 38 41 41 40 35 31 29 29 29 30 28 25 25 26 21 22 23 21 20
37 36 36 39 40 40 38 37 36 36 35 35 34 32 28 27 26 25 25 23 24 23
37 38 39 41 39 36 36 34 36 35 33 33 31 29 26 26 25 23 24 26 27 30
35 34 34 35 36 35 33 31 30 29 29 28 28 28 29 28 28 29 29 29 31 32
28 29 31 31 30 29 27 24 24 25 25 25 27 29 29 28 28 29 30 31 31 33
28 25 25 23 22 22 22 23 23 24 26 26 25 28 28 28 30 30 31 33 35 38
24 22 18 19 20 20 22 22 21 22 22 23 26 28 28 29 29 28 29 31 33 36
17 17 16 18 20 17 17 17 19 21 20 24 23 24 24 24 26 27 28 30 34 37
14 14 15 12 11 11 13 16 16 17 18 19 19 22 25 25 26 27 31 35 39 44
16 13 12 10 9 10 12 13 14 14 15 15 18 21 24 27 28 30 33 38 38 47
20 18 16 11 9 10 11 11 11 11 12 13 14 19 25 27 27 28 32 38 45 51
25 21 17 14 12 11 11 9 9 8 9 11 16 22 27 29 30 31 34 40 44 44
Wind_Direction_500mb
84 85 87 88 90 92 95 94 95 102 109 109 102 91 90 89 84 71 62 63 63 39
82 82 83 84 85 85 85 84 81 78 78 78 79 76 75 79 74 66 65 62 55 49
83 85 87 89 89 90 90 92 94 93 92 92 90 88 83 79 78 75 75 69 61 56
91 95 96 94 92 93 95 93 93 92 90 90 90 86 85 84 77 69 62 55 42 34
100 101 101 100 98 97 94 94 93 93 93 92 86 83 76 66 63 55 43 36 28 23
104 103 102 103 103 101 98 95 93 90 82 75 74 67 58 51 44 41 38 32 26 20
106 107 107 106 105 103 98 94 86 80 77 72 67 65 59 49 43 37 31 26 22 17
121 120 112 107 104 98 96 88 83 83 77 72 68 61 53 45 39 33 27 22 18 17
137 129 123 115 102 98 94 92 86 78 75 71 62 55 44 36 29 27 24 23 20 17
143 134 132 121 109 99 93 88 79 75 65 56 50 46 39 32 30 25 23 25 22 17
169 153 138 122 110 103 99 92 85 76 68 56 45 36 32 29 26 25 23 21 18 14
187 174 156 165 144 131 113 100 89 74 57 45 41 34 31 28 24 21 19 15 16 14
198 193 190 190 175 156 134 126 99 77 59 46 37 31 32 28 23 20 17 15 15 15
207 206 204 203 190 186 156 138 114 90 61 36 28 25 21 17 16 16 17 17 12 8
Wind_Speed_850mb
41 45 44 40 37 39 37 34 28 28 26 23 18 17 14 13 14 13 9 11 12 12
44 42 42 39 36 35 34 32 27 24 24 25 25 25 22 24 24 19 19 19 18 16
41 40 39 38 41 41 40 35 31 29 29 29 30 28 25 25 26 21 22 23 21 20
37 36 36 39 40 40 38 37 36 36 35 35 34 32 28 27 26 25 25 23 24 23
37 38 39 41 39 36 36 34 36 35 33 33 31 29 26 26 25 23 24 26 27 30
35 34 34 35 36 35 33 31 30 29 29 28 28 28 29 28 28 29 29 29 31 32
28 29 31 31 30 29 27 24 24 25 25 25 27 29 29 28 28 29 30 31 31 33
28 25 25 23 22 22 22 23 23 24 26 26 25 28 28 28 30 30 31 33 35 38
24 22 18 19 20 20 22 22 21 22 22 23 26 28 28 29 29 28 29 31 33 36
17 17 16 18 20 17 17 17 19 21 20 24 23 24 24 24 26 27 28 30 34 37
14 14 15 12 11 11 13 16 16 17 18 19 19 22 25 25 26 27 31 35 39 44
16 13 12 10 9 10 12 13 14 14 15 15 18 21 24 27 28 30 33 38 38 47
20 18 16 11 9 10 11 11 11 11 12 13 14 19 25 27 27 28 32 38 45 51
25 21 17 14 12 11 11 9 9 8 9 11 16 22 27 29 30 31 34 40 44 44
Wind_Direction_850mb
84 85 87 88 90 92 95 94 95 102 109 109 102 91 90 89 84 71 62 63 63 39
82 82 83 84 85 85 85 84 81 78 78 78 79 76 75 79 74 66 65 62 55 49
83 85 87 89 89 90 90 92 94 93 92 92 90 88 83 79 78 75 75 69 61 56
91 95 96 94 92 93 95 93 93 92 90 90 90 86 85 84 77 69 62 55 42 34
100 101 101 100 98 97 94 94 93 93 93 92 86 83 76 66 63 55 43 36 28 23
104 103 102 103 103 101 98 95 93 90 82 75 74 67 58 51 44 41 38 32 26 20
106 107 107 106 105 103 98 94 86 80 77 72 67 65 59 49 43 37 31 26 22 17
121 120 112 107 104 98 96 88 83 83 77 72 68 61 53 45 39 33 27 22 18 17
137 129 123 115 102 98 94 92 86 78 75 71 62 55 44 36 29 27 24 23 20 17
143 134 132 121 109 99 93 88 79 75 65 56 50 46 39 32 30 25 23 25 22 17
169 153 138 122 110 103 99 92 85 76 68 56 45 36 32 29 26 25 23 21 18 14
187 174 156 165 144 131 113 100 89 74 57 45 41 34 31 28 24 21 19 15 16 14
198 193 190 190 175 156 134 126 99 77 59 46 37 31 32 28 23 20 17 15 15 15
207 206 204 203 190 186 156 138 114 90 61 36 28 25 21 17 16 16 17 17 12 8